Tracking 17694 objects as of 30-May-2016
HD Live streaming from Space Station
objects crossing your sky now

TERRIERS

Track TERRIERS now!
10-day predictions
TERRIERS is classified as:


NORAD ID: 25735
Int'l Code: 1999-026A
Perigee: 440.8 km
Apogee: 446.8 km
Inclination: 97.1 °
Period: 93.3 minutes
Semi major axis: 6814 km
RCS: 0.4968 m2 (medium)
Launch date: May 18, 1999
Source: United States (US)
Launch site: Pegasus launched from Western Range Air Space (WRAS)
Your satellite tracking list
Your tracking list is empty





NASA's NSSDC Master Catalog

Two Line Element Set (TLE):
1 25735U 99026A   16150.86530506  .00002929  00000-0  67914-4 0  9997
2 25735  97.1456 316.2694 0004351 353.4984 145.1709 15.43202318947136
Source of the keplerian elements: AFSPC

N2YO: 547